GW0061 Weather Reports


time (UTC)temp
C
wind
direction
speed
KPH
gust
KPH
rain 1hr
cm
rain 24hr
cm
rain mn
cm
humidity
%
barometer
mb
20260510234047 25 0 0.0 0.0 0.00 0.00 0.00 52 1013.9
20260510233545 26 0 0.0 0.0 0.00 0.00 0.00 51 1013.8
20260510233058 26 0 0.0 0.0 0.00 0.00 0.00 52 1013.8
20260510232547 26 0 0.0 0.0 0.00 0.00 0.00 46 1013.7
20260510232047 27 0 0.0 0.0 0.00 0.00 0.00 44 1013.7
20260510231552 27 0 0.0 0.0 0.00 0.00 0.00 43 1013.6
20260510231048 27 0 0.0 0.0 0.00 0.00 0.00 42 1013.6
20260510230548 27 0 0.0 0.0 0.00 0.00 0.00 43 1013.5
20260510230056 27 0 0.0 0.0 0.00 0.00 0.00 41 1013.5
20260510225548 27 0 0.0 0.0 0.00 0.00 0.00 40 1013.4
20260510225048 27 0 0.0 1.6 0.00 0.00 0.00 39 1013.4
20260510224550 27 0 0.0 1.6 0.00 0.00 0.00 41 1013.4
20260510224048 28 0 0.0 6.4 0.00 0.00 0.00 41 1013.4
20260510223548 28 0 0.0 6.4 0.00 0.00 0.00 41 1013.4
20260510223100 28 0 0.0 0.0 0.00 0.00 0.00 42 1013.4
20260510222548 28 0 0.0 0.0 0.00 0.00 0.00 41 1013.3
20260510222044 28 0 0.0 0.0 0.00 0.00 0.00 39 1013.3
20260510221554 28 0 0.0 0.0 0.00 0.00 0.00 40 1013.3
20260510221044 28 0 0.0 0.0 0.00 0.00 0.00 39 1013.4
20260510220547 28 0 0.0 0.0 0.00 0.00 0.00 40 1013.3
20260510220056 29 0 0.0 9.7 0.00 0.00 0.00 39 1013.2
20260510215549 29 0 0.0 9.7 0.00 0.00 0.00 39 1013.2
20260510215044 30 0 0.0 3.2 0.00 0.00 0.00 38 1013.2
20260510214554 30 0 0.0 4.8 0.00 0.00 0.00 38 1013.2
20260510214048 31 0 0.0 4.8 0.00 0.00 0.00 35 1013.2
20260510213547 31 0 0.0 4.8 0.00 0.00 0.00 39 1013.1
20260510213051 31 0 0.0 0.0 0.00 0.00 0.00 37 1013.1
20260510212547 31 0 0.0 1.6 0.00 0.00 0.00 36 1013.1
20260510212047 31 0 0.0 1.6 0.00 0.00 0.00 37 1013.1
20260510211553 31 0 0.0 0.0 0.00 0.00 0.00 36 1013.0
20260510211044 31 0 0.0 6.4 0.00 0.00 0.00 36 1013.2
20260510210546 31 0 0.0 6.4 0.00 0.00 0.00 36 1013.2
20260510210054 31 0 0.0 0.0 0.00 0.00 0.00 38 1013.1
20260510205544 31 0 0.0 0.0 0.00 0.00 0.00 39 1013.1
20260510205044 31 0 0.0 0.0 0.00 0.00 0.00 38 1013.1
20260510204552 31 0 0.0 0.0 0.00 0.00 0.00 39 1013.1
20260510204045 31 0 0.0 0.0 0.00 0.00 0.00 36 1013.1
20260510203548 31 0 0.0 1.6 0.00 0.00 0.00 39 1013.2
20260510203049 31 0 0.0 1.6 0.00 0.00 0.00 39 1013.2
20260510202548 31 0 0.0 1.6 0.00 0.00 0.00 40 1013.2
20260510202048 31 0 0.0 6.4 0.00 0.00 0.00 40 1013.2
20260510201548 31 0 0.0 6.4 0.00 0.00 0.00 40 1013.1
20260510201048 30 0 0.0 6.4 0.00 0.00 0.00 40 1013.2
20260510200548 30 0 0.0 0.0 0.00 0.00 0.00 40 1013.1
20260510200052 31 0 0.0 0.0 0.00 0.00 0.00 43 1013.2
20260510195546 31 0 0.0 0.0 0.00 0.00 0.00 43 1013.2
20260510195046 31 0 0.0 0.0 0.00 0.00 0.00 42 1013.2
20260510194558 31 0 0.0 0.0 0.00 0.00 0.00 41 1013.2
20260510194048 31 0 0.0 0.0 0.00 0.00 0.00 43 1013.3
20260510193546 31 0 0.0 0.0 0.00 0.00 0.00 42 1013.3
20260510193058 31 0 0.0 0.0 0.00 0.00 0.00 43 1013.4
20260510192549 31 0 0.0 4.8 0.00 0.00 0.00 44 1013.4
20260510192048 31 0 0.0 4.8 0.00 0.00 0.00 42 1013.5
20260510191605 31 0 0.0 8.0 0.00 0.00 0.00 44 1013.6
20260510191046 30 0 0.0 8.0 0.00 0.00 0.00 43 1013.7
20260510190547 30 0 0.0 0.0 0.00 0.00 0.00 42 1013.7
20260510190106 30 0 0.0 0.0 0.00 0.00 0.00 44 1013.8
20260510185547 30 0 0.0 0.0 0.00 0.00 0.00 47 1013.9
20260510185047 30 0 0.0 0.0 0.00 0.00 0.00 46 1014.0
20260510184553 30 0 0.0 0.0 0.00 0.00 0.00 42 1014.0
20260510184047 29 0 0.0 6.4 0.00 0.00 0.00 47 1014.0
20260510183548 29 0 0.0 6.4 0.00 0.00 0.00 52 1014.0
20260510183057 29 0 0.0 3.2 0.00 0.00 0.00 48 1014.0
20260510182547 29 0 0.0 0.0 0.00 0.00 0.00 47 1014.0
20260510182048 30 0 0.0 0.0 0.00 0.00 0.00 48 1014.0
20260510181555 30 0 0.0 0.0 0.00 0.00 0.00 49 1014.2
20260510181047 30 0 0.0 0.0 0.00 0.00 0.00 49 1014.3
20260510180548 29 0 0.0 9.7 0.00 0.00 0.00 50 1014.3
20260510180052 28 0 0.0 12.9 0.00 0.00 0.00 48 1014.3
20260510175544 29 0 0.0 12.9 0.00 0.00 0.00 47 1014.3
20260510175048 30 0 0.0 1.6 0.00 0.00 0.00 52 1014.2
20260510174557 30 0 0.0 0.0 0.00 0.00 0.00 48 1014.2
20260510174043 30 0 0.0 0.0 0.00 0.00 0.00 50 1014.2
20260510173547 29 0 0.0 6.4 0.00 0.00 0.00 52 1014.2
20260510173056 29 0 0.0 6.4 0.00 0.00 0.00 51 1014.3
20260510172546 29 0 0.0 6.4 0.00 0.00 0.00 49 1014.3
20260510172047 30 0 0.0 4.8 0.00 0.00 0.00 50 1014.3
20260510171553 30 0 0.0 9.7 0.00 0.00 0.00 49 1014.4
20260510171045 29 0 0.0 9.7 0.00 0.00 0.00 50 1014.4
20260510170546 29 0 0.0 0.0 0.00 0.00 0.00 52 1014.3
20260510170053 29 0 0.0 0.0 0.00 0.00 0.00 49 1014.3
20260510165545 29 0 0.0 0.0 0.00 0.00 0.00 55 1014.3
20260510165049 29 0 0.0 0.0 0.00 0.00 0.00 54 1014.4
20260510164558 28 0 0.0 0.0 0.00 0.00 0.00 53 1014.3
20260510164044 28 0 0.0 0.0 0.00 0.00 0.00 51 1014.5
20260510163545 28 0 0.0 0.0 0.00 0.00 0.00 51 1014.5
20260510163051 28 0 0.0 0.0 0.00 0.00 0.00 51 1014.5
20260510162545 28 0 0.0 0.0 0.00 0.00 0.00 54 1014.5
20260510162045 28 0 0.0 0.0 0.00 0.00 0.00 51 1014.6
20260510161600 28 0 0.0 0.0 0.00 0.00 0.00 52 1014.7
20260510161046 28 0 0.0 0.0 0.00 0.00 0.00 56 1014.7
20260510160546 28 0 0.0 4.8 0.00 0.00 0.00 56 1014.7
20260510160134 27 0 0.0 4.8 0.00 0.00 0.00 55 1014.9
20260510155545 27 0 0.0 1.6 0.00 0.00 0.00 55 1015.0
20260510155045 27 0 0.0 9.7 0.00 0.00 0.00 54 1015.1
20260510154606 27 0 0.0 9.7 0.00 0.00 0.00 54 1015.2
20260510154048 27 0 0.0 0.0 0.00 0.00 0.00 59 1015.2
20260510153546 27 0 0.0 0.0 0.00 0.00 0.00 63 1015.1
20260510153054 26 0 0.0 0.0 0.00 0.00 0.00 62 1015.1
20260510152547 26 0 0.0 0.0 0.00 0.00 0.00 60 1015.0
20260510152049 26 0 0.0 0.0 0.00 0.00 0.00 63 1015.0
20260510151553 26 0 0.0 0.0 0.00 0.00 0.00 59 1015.0
20260510151046 26 0 0.0 0.0 0.00 0.00 0.00 62 1015.1
20260510150546 26 0 0.0 0.0 0.00 0.00 0.00 65 1015.1
20260510150052 26 0 0.0 0.0 0.00 0.00 0.00 64 1015.1
20260510145545 26 0 0.0 0.0 0.00 0.00 0.00 69 1015.1
20260510145046 26 0 0.0 0.0 0.00 0.00 0.00 65 1015.0
20260510144552 25 0 0.0 0.0 0.00 0.00 0.00 68 1015.0
20260510144048 26 0 0.0 3.2 0.00 0.00 0.00 66 1015.1
20260510143547 25 0 0.0 3.2 0.00 0.00 0.00 66 1015.0
20260510143058 25 0 0.0 0.0 0.00 0.00 0.00 68 1015.1
20260510142548 24 0 0.0 0.0 0.00 0.00 0.00 72 1015.2
20260510142047 24 0 0.0 0.0 0.00 0.00 0.00 72 1015.0
20260510141557 23 0 0.0 0.0 0.00 0.00 0.00 72 1015.0
20260510141048 23 0 0.0 0.0 0.00 0.00 0.00 75 1015.1
20260510140547 22 0 0.0 0.0 0.00 0.00 0.00 77 1015.1
20260510140105 22 0 0.0 0.0 0.00 0.00 0.00 78 1015.1
20260510135549 22 0 0.0 0.0 0.00 0.00 0.00 80 1015.0
20260510135051 21 0 0.0 0.0 0.00 0.00 0.00 81 1015.0
20260510134602 21 0 0.0 0.0 0.00 0.00 0.00 82 1014.9
20260510134046 21 0 0.0 0.0 0.00 0.00 0.00 85 1014.7
20260510133546 21 0 0.0 0.0 0.00 0.00 0.00 86 1014.7
20260510133056 21 0 0.0 0.0 0.00 0.00 0.00 87 1014.7
20260510132548 20 0 0.0 0.0 0.00 0.00 0.00 89 1014.7
20260510132047 20 0 0.0 0.0 0.00 0.00 0.00 89 1014.9
20260510131554 20 0 0.0 0.0 0.00 0.00 0.00 90 1014.8
20260510131047 19 0 0.0 0.0 0.00 0.00 0.00 91 1014.7
20260510130548 19 0 0.0 0.0 0.00 0.00 0.00 92 1014.7
20260510130053 18 0 0.0 0.0 0.00 0.00 0.00 93 1014.6
20260510125547 18 0 0.0 0.0 0.00 0.00 0.00 94 1014.6
20260510125048 18 0 0.0 0.0 0.00 0.00 0.00 95 1014.6
20260510124552 18 0 0.0 0.0 0.00 0.00 0.00 95 1014.6
20260510124047 18 0 0.0 0.0 0.00 0.00 0.00 95 1014.5
20260510123548 18 0 0.0 0.0 0.00 0.00 0.00 95 1014.6
20260510123052 17 0 0.0 0.0 0.00 0.00 0.00 96 1014.5
20260510122544 17 0 0.0 0.0 0.00 0.00 0.00 96 1014.6
20260510122047 17 0 0.0 0.0 0.00 0.00 0.00 96 1014.5
20260510121549 17 0 0.0 0.0 0.00 0.00 0.00 96 1014.5
20260510121048 16 0 0.0 0.0 0.00 0.00 0.00 95 1014.6
20260510120547 16 0 0.0 0.0 0.00 0.00 0.00 95 1014.6
20260510120053 16 0 0.0 0.0 0.00 0.00 0.00 96 1014.4
20260510115549 16 0 0.0 0.0 0.00 0.00 0.00 95 1014.3
20260510115047 16 0 0.0 0.0 0.00 0.00 0.00 95 1014.2
20260510114550 16 0 0.0 0.0 0.00 0.00 0.00 96 1014.1
20260510114047 16 0 0.0 0.0 0.00 0.00 0.00 96 1014.1
20260510113547 16 0 0.0 0.0 0.00 0.00 0.00 95 1014.1
20260510113102 16 0 0.0 0.0 0.00 0.00 0.00 96 1013.9
20260510112547 16 0 0.0 0.0 0.00 0.00 0.00 95 1013.8
20260510112051 15 0 0.0 0.0 0.00 0.00 0.00 95 1013.8
20260510111608 15 0 0.0 0.0 0.00 0.00 0.00 95 1013.9
20260510111047 15 0 0.0 0.0 0.00 0.00 0.00 95 1013.8
20260510110549 15 0 0.0 0.0 0.00 0.00 0.00 95 1013.7
20260510110055 15 0 0.0 0.0 0.00 0.00 0.00 95 1013.7
20260510105547 15 0 0.0 0.0 0.00 0.00 0.00 95 1013.7
20260510105045 15 0 0.0 0.0 0.00 0.00 0.00 95 1013.6
20260510104552 15 0 0.0 0.0 0.00 0.00 0.00 95 1013.5
20260510104046 15 0 0.0 0.0 0.00 0.00 0.00 95 1013.4
20260510103546 15 0 0.0 0.0 0.00 0.00 0.00 95 1013.1
20260510103054 15 0 0.0 0.0 0.00 0.00 0.00 95 1013.1
20260510102546 15 0 0.0 0.0 0.00 0.00 0.00 95 1013.1
20260510102046 15 0 0.0 0.0 0.00 0.00 0.00 95 1013.1
20260510101554 15 0 0.0 0.0 0.00 0.00 0.00 95 1012.9
20260510101048 15 0 0.0 0.0 0.00 0.00 0.00 95 1012.9
20260510100546 15 0 0.0 0.0 0.00 0.00 0.00 95 1012.8
20260510100056 15 0 0.0 0.0 0.00 0.00 0.00 95 1012.7
20260510095546 15 0 0.0 0.0 0.00 0.00 0.00 95 1012.6
20260510095045 15 0 0.0 0.0 0.00 0.00 0.00 95 1012.5
20260510094555 15 0 0.0 0.0 0.00 0.00 0.00 95 1012.6
20260510094046 15 0 0.0 0.0 0.00 0.00 0.00 95 1012.6
20260510093548 15 0 0.0 0.0 0.00 0.00 0.00 95 1012.5
20260510093110 15 0 0.0 0.0 0.00 0.00 0.00 95 1012.5
20260510092548 15 0 0.0 0.0 0.00 0.00 0.00 95 1012.5
20260510092047 15 0 0.0 0.0 0.00 0.00 0.00 95 1012.3
20260510091554 15 0 0.0 0.0 0.00 0.00 0.00 95 1012.3
20260510091046 15 0 0.0 0.0 0.00 0.00 0.00 95 1012.4
20260510090547 15 0 0.0 0.0 0.00 0.00 0.00 95 1012.3
20260510090112 15 0 0.0 0.0 0.00 0.00 0.00 94 1012.2
20260510085544 15 0 0.0 0.0 0.00 0.00 0.00 94 1012.2
20260510085045 15 0 0.0 0.0 0.00 0.00 0.00 95 1012.0
20260510084552 15 0 0.0 0.0 0.00 0.00 0.00 95 1012.1
20260510084048 15 0 0.0 0.0 0.00 0.00 0.00 95 1012.0
20260510083548 15 0 0.0 0.0 0.00 0.00 0.00 95 1012.0
20260510083109 15 0 0.0 0.0 0.00 0.00 0.00 94 1012.0
20260510082546 15 0 0.0 0.0 0.00 0.00 0.00 94 1012.0
20260510082046 15 0 0.0 0.0 0.00 0.00 0.00 94 1011.9
20260510081607 15 0 0.0 0.0 0.00 0.00 0.00 95 1012.0
20260510081047 15 0 0.0 0.0 0.00 0.00 0.00 95 1011.9
20260510080547 15 0 0.0 0.0 0.00 0.00 0.00 95 1012.0
20260510080054 15 0 0.0 0.0 0.00 0.00 0.00 95 1011.9
20260510075547 15 0 0.0 0.0 0.00 0.00 0.00 94 1011.8
20260510075046 15 0 0.0 0.0 0.00 0.00 0.00 94 1011.8
20260510074600 15 0 0.0 0.0 0.00 0.00 0.00 94 1011.8
20260510074049 15 0 0.0 0.0 0.00 0.00 0.00 94 1011.8
20260510073545 15 0 0.0 0.0 0.00 0.00 0.00 94 1011.8
20260510073055 15 0 0.0 0.0 0.00 0.00 0.00 94 1011.7
20260510072547 15 0 0.0 0.0 0.00 0.00 0.00 94 1011.7
20260510072047 15 0 0.0 0.0 0.00 0.00 0.00 94 1011.6
20260510071553 15 0 0.0 0.0 0.00 0.00 0.00 94 1011.7
20260510071046 15 0 0.0 0.0 0.00 0.00 0.00 94 1011.7
20260510070547 15 0 0.0 0.0 0.00 0.00 0.00 94 1011.7
20260510070054 15 0 0.0 0.0 0.00 0.00 0.00 94 1011.8
20260510065551 15 0 0.0 0.0 0.00 0.00 0.00 94 1012.0
20260510065047 15 0 0.0 0.0 0.00 0.00 0.00 94 1011.9
20260510064602 15 0 0.0 0.0 0.00 0.00 0.00 94 1011.8
20260510064046 16 0 0.0 0.0 0.00 0.00 0.00 94 1011.8
20260510063547 16 0 0.0 0.0 0.00 0.00 0.00 94 1011.9
20260510063054 15 0 0.0 0.0 0.00 0.00 0.00 94 1011.7
20260510062546 15 0 0.0 0.0 0.00 0.00 0.00 94 1011.5
20260510062048 15 0 0.0 0.0 0.00 0.00 0.00 94 1011.6
20260510061556 15 0 0.0 0.0 0.00 0.00 0.00 94 1011.5
20260510061048 15 0 0.0 0.0 0.00 0.00 0.00 94 1011.5
20260510060548 15 0 0.0 0.0 0.00 0.00 0.00 94 1011.6
20260510060050 15 0 0.0 0.0 0.00 0.00 0.00 94 1011.6
20260510055547 15 0 0.0 0.0 0.00 0.00 0.00 94 1011.8
20260510055048 15 0 0.0 0.0 0.00 0.00 0.00 94 1011.9
20260510054551 16 0 0.0 0.0 0.00 0.00 0.00 93 1012.0
20260510054047 16 0 0.0 0.0 0.00 0.00 0.00 93 1012.0
20260510053547 16 0 0.0 0.0 0.00 0.00 0.00 93 1012.0
20260510053048 16 0 0.0 0.0 0.00 0.00 0.00 93 1012.0
20260510052547 16 0 0.0 0.0 0.00 0.00 0.00 93 1012.2
20260510052048 16 0 0.0 0.0 0.00 0.00 0.00 93 1012.2
20260510051558 16 0 0.0 0.0 0.00 0.00 0.00 93 1012.2
20260510051050 16 0 0.0 0.0 0.00 0.00 0.00 93 1012.2
20260510050548 16 0 0.0 0.0 0.00 0.00 0.00 93 1012.3
20260510050056 16 0 0.0 0.0 0.00 0.00 0.00 93 1012.3
20260510045550 16 0 0.0 0.0 0.00 0.00 0.00 93 1012.4
20260510045047 16 0 0.0 0.0 0.00 0.00 0.00 93 1012.4
20260510044637 16 0 0.0 0.0 0.00 0.00 0.00 93 1012.3
20260510044048 16 0 0.0 0.0 0.00 0.00 0.00 93 1012.3
20260510043548 16 0 0.0 0.0 0.00 0.00 0.00 93 1012.4
20260510043052 16 0 0.0 0.0 0.00 0.00 0.00 93 1012.4
20260510042544 16 0 0.0 0.0 0.00 0.00 0.00 92 1012.3
20260510042049 16 0 0.0 0.0 0.00 0.00 0.00 92 1012.2
20260510041555 16 0 0.0 0.0 0.00 0.00 0.00 92 1012.2
20260510041047 16 0 0.0 0.0 0.00 0.00 0.00 92 1012.2
20260510040547 16 0 0.0 0.0 0.00 0.00 0.00 92 1012.2
20260510040054 16 0 0.0 0.0 0.00 0.00 0.00 92 1012.0
20260510035548 16 0 0.0 0.0 0.00 0.00 0.00 92 1012.1
20260510035047 16 0 0.0 0.0 0.00 0.00 0.00 92 1012.0
20260510034553 16 0 0.0 0.0 0.00 0.00 0.00 92 1012.1
20260510034047 16 0 0.0 0.0 0.00 0.00 0.00 92 1012.0
20260510033546 16 0 0.0 0.0 0.00 0.00 0.00 92 1011.9
20260510033056 16 0 0.0 0.0 0.00 0.00 0.00 92 1012.0
20260510032547 16 0 0.0 0.0 0.00 0.00 0.00 92 1011.9
20260510032047 16 0 0.0 0.0 0.00 0.00 0.00 92 1011.8
20260510031552 16 0 0.0 0.0 0.00 0.00 0.00 91 1011.8
20260510031051 17 0 0.0 0.0 0.00 0.00 0.00 92 1011.7
20260510030548 17 0 0.0 0.0 0.00 0.00 0.00 91 1011.7
20260510030055 17 0 0.0 0.0 0.00 0.00 0.00 91 1011.7
20260510025546 17 0 0.0 0.0 0.00 0.00 0.00 91 1011.7
20260510025046 17 0 0.0 0.0 0.00 0.00 0.00 91 1011.6
20260510024551 17 0 0.0 0.0 0.00 0.00 0.00 91 1011.4
20260510024045 17 0 0.0 0.0 0.00 0.00 0.00 91 1011.4
20260510023545 17 0 0.0 0.0 0.00 0.00 0.00 91 1011.4
20260510023059 17 0 0.0 0.0 0.00 0.00 0.00 91 1011.4
20260510022546 17 0 0.0 0.0 0.00 0.00 0.00 90 1011.4
20260510022047 17 0 0.0 0.0 0.00 0.00 0.00 90 1011.4
20260510021552 17 0 0.0 0.0 0.00 0.00 0.00 90 1011.3
20260510021046 17 0 0.0 0.0 0.00 0.00 0.00 89 1011.2
20260510020547 17 0 0.0 0.0 0.00 0.00 0.00 89 1011.2
20260510020053 17 0 0.0 0.0 0.00 0.00 0.00 89 1011.3
20260510015546 17 0 0.0 0.0 0.00 0.00 0.00 88 1011.4
20260510015049 18 0 0.0 0.0 0.00 0.00 0.00 88 1011.2
20260510014551 18 0 0.0 0.0 0.00 0.00 0.00 88 1011.1
20260510014047 18 0 0.0 0.0 0.00 0.00 0.00 88 1011.0
20260510013549 18 0 0.0 0.0 0.00 0.00 0.00 87 1010.9
20260510013049 18 0 0.0 0.0 0.00 0.00 0.00 87 1011.0
20260510012546 18 0 0.0 0.0 0.00 0.00 0.00 87 1010.9
20260510012046 18 0 0.0 0.0 0.00 0.00 0.00 86 1010.9
20260510011556 18 0 0.0 0.0 0.00 0.00 0.00 86 1010.9
20260510011046 18 0 0.0 0.0 0.00 0.00 0.00 85 1010.9
20260510010545 19 0 0.0 0.0 0.00 0.00 0.00 85 1010.9
20260510010121 19 0 0.0 0.0 0.00 0.00 0.00 85 1010.7
20260510005547 19 0 0.0 0.0 0.00 0.00 0.00 85 1010.7
20260510005047 20 0 0.0 0.0 0.00 0.00 0.00 84 1010.7
20260510004553 20 0 0.0 0.0 0.00 0.00 0.00 84 1010.7
20260510004048 20 0 0.0 0.0 0.00 0.00 0.00 83 1010.5
20260510003547 20 0 0.0 0.0 0.00 0.00 0.00 83 1010.6
20260510003052 20 0 0.0 0.0 0.00 0.00 0.00 83 1010.5
20260510002547 20 0 0.0 0.0 0.00 0.00 0.00 83 1010.5
20260510002046 21 0 0.0 0.0 0.00 0.00 0.00 81 1010.5
20260510001550 21 0 0.0 0.0 0.00 0.00 0.00 81 1010.6
20260510001048 21 0 0.0 0.0 0.00 0.00 0.00 81 1010.6
20260510000548 21 0 0.0 0.0 0.00 0.00 0.00 80 1010.4
20260510000047 21 0 0.0 0.0 0.00 0.00 0.00 79 1010.4
20260509235545 21 0 0.0 0.0 0.00 0.00 0.00 79 1010.3
20260509235045 22 0 0.0 0.0 0.00 0.00 0.00 78 1010.2
20260509234557 22 0 0.0 0.0 0.00 0.00 0.00 78 1010.3